User: anonymous   Login
Location: Caltech
(34.1382°N, 118.1253°W)
Time: 15:01:00
(UTC-07:00)
Language:

Cosmos 1943 Rocket - Orbit

View from above orbital plane
View from above orbital plane
View from above satellite
View from above satellite

Ground track
Ground track

The orbit data is extracted from the following two-line orbital elements,

1 19120U 88039B   15089.48634440  .00000014  00000-0  29496-4 0  9996
2 19120 071.0146 235.6845 0022340 343.8027 016.2381 14.19097377391513
Epoch (UTC): 30 March 2015 11:40:20
Eccentricity: 0.0022340
inclination: 71.0146°
perigee height: 812 km
apogee height: 844 km
right ascension of ascending node: 235.6845°
argument of perigee: 343.8027°
revolutions per day: 14.19097377
mean anomaly at epoch: 16.2381°
orbit number at epoch: 39151

The dashed part of the orbit path shows where the satellite is in the earth's shadow,  

DLR